星链-32021 (STARLINK-32021)

导读

STARLINK-32021是美国SpaceX星链(Starlink)项目的一颗低轨卫星,于2024年6月27日发射入轨,隶属于Starlink Gen2系列。星链项目旨在构建全球卫星互联网星座,该卫星承担为全球偏远地区、海洋空域等提供宽带互联网接入服务的任务,也是星链大规模组网建设中的组成单元。

Basic Information
目录编号:
60148
目录名称:
STARLINK-32021
国际标识:
2024-120P
轨道中心:
EARTH
卫星名称:
星链-32021
卫星全名:
星链-32021 (STARLINK-32021)
卫星状态:
在轨 (已飞行721 天)
发射日期:
2024-06-27 UTC
国别 :
美国 (US)
星等 :
--
Orbit Information
数据来源 国际轨道数据 AOE轨道数据
星历时间 2026-06-17T18:19:56+0800
16小时前
查看轨道信息
2026-06-17T03:00:00+0800
1天前
查看轨道信息
半长轴 6848.871km 6848.875km
偏心率 0.000095 0.0000902
轨道倾角 53.160° 53.158°
近地点辐角 76.404° 59.295°
升交点赤经 206.213° 209.188°
平近点角 283.706° 16.160°
近地点 470.083km 470.12km
远地点 471.385km 471.356km
周期 94.013分钟 94.013分钟
每日圈数 15.317022 15.317007
Detailed Information
固有亮度:
5
最大亮度:
2.5
卫星平台:
Starlink V1.0
覆盖范围:
全球
运营商:
太空探索技术公司
运营商所在国:
美国
制造商(研发单位):
太空探索技术公司
制造商所在国:
美国
使用方式:
暂无
Satellite Introduction
Starlink 计划是 SpaceX 推出的全球卫星互联网项目,通过发射低轨道卫星,为全球尤其是偏远地区提供高速、低延迟的互联网服务。自 2019 年起,Starlink 已部署数千颗卫星,旨在缩小全球数字鸿沟,推动互联网普及。该项目还为军事、航空等行业提供通信支持,带来广泛经济效益。
2D Orbit Map
3D Orbit Map
Orbit Altitude Analysis Chart
Orbit Inclination Analysis Chart
Orbit Comprehensive Analysis Chart
View Comprehensive Chart